When you browse on this site, cookies collect data to enhance your experience and personalize the content and advertising you see.
Visit our Privacy Policy to learn more. By continuing to use the site, you agree to this use of cookies and data.
  • En España
  • Lista de países
  • Para 7 días
  • Temperatura del agua
  • El tiempo en el mapa
  • Informadores
  • user-avatar
    Iniciar sesión

    Tiempo cada hora Castelló de la Plana

    Hoy, 21 Febrero, Viernes

    Tiempo Temperatura Precipitaciones Viento Presión Humedad
    00:00 +12°C° 0 mm 1 mps 767 mmHg 81%
    01:00 +12°C° 0 mm 1 mps 767 mmHg 79%
    02:00 +12°C° 0 mm 1 mps 767 mmHg 78%
    03:00 +12°C° 0 mm 1 mps 767 mmHg 76%
    04:00 +11°C° 0 mm 1 mps 768 mmHg 74%
    05:00 +11°C° 0 mm 1 mps 768 mmHg 72%
    06:00 +11°C° 0 mm 1 mps 768 mmHg 70%
    13:00 +19°C° 0 mm 2 mps 769 mmHg 43%
    14:00 +19°C° 0 mm 2 mps 768 mmHg 46%
    15:00 +19°C° 0 mm 2 mps 768 mmHg 48%
    16:00 +17°C° 0 mm 2 mps 768 mmHg 57%
    17:00 +15°C° 0 mm 2 mps 768 mmHg 66%
    18:00 +14°C° 0 mm 1 mps 768 mmHg 75%
    19:00 +14°C° 0 mm 2 mps 768 mmHg 75%
    20:00 +13°C° 0 mm 2 mps 769 mmHg 76%
    21:00 +13°C° 0 mm 2 mps 769 mmHg 76%
    22:00 +13°C° 0 mm 2 mps 769 mmHg 74%
    23:00 +13°C° 0 mm 2 mps 769 mmHg 72%

    Mañana, 22 Febrero, Sábado

    Tiempo Temperatura Precipitaciones Viento Presión Humedad
    00:00 +12°C° 0 mm 2 mps 769 mmHg 69%
    01:00 +12°C° 0 mm 2 mps 769 mmHg 67%
    02:00 +12°C° 0 mm 1 mps 769 mmHg 65%
    03:00 +12°C° 0 mm 1 mps 769 mmHg 63%
    04:00 +12°C° 0 mm 1 mps 769 mmHg 60%
    05:00 +12°C° 0 mm 1 mps 769 mmHg 58%
    06:00 +11°C° 0 mm 1 mps 769 mmHg 56%
    07:00 +13°C° 0 mm 1 mps 769 mmHg 51%
    08:00 +15°C° 0 mm 1 mps 769 mmHg 46%
    09:00 +16°C° 0 mm 1 mps 770 mmHg 40%
    10:00 +19°C° 0 mm 1 mps 770 mmHg 39%
    11:00 +20°C° 0 mm 1 mps 770 mmHg 38%
    12:00 +21°C° 0 mm 1 mps 770 mmHg 37%
    13:00 +21°C° 0 mm 1 mps 770 mmHg 41%
    14:00 +20°C° 0 mm 1 mps 770 mmHg 45%
    15:00 +20°C° 0 mm 1 mps 770 mmHg 48%
    16:00 +19°C° 0 mm 1 mps 770 mmHg 56%
    17:00 +16°C° 0 mm 1 mps 770 mmHg 63%
    18:00 +14°C° 0 mm 0 mps 770 mmHg 71%
    19:00 +13°C° 0 mm 0 mps 771 mmHg 71%
    20:00 +13°C° 0 mm 0 mps 771 mmHg 72%
    21:00 +13°C° 0 mm 0 mps 772 mmHg 72%
    22:00 +12°C° 0 mm 0 mps 772 mmHg 72%
    23:00 +12°C° 0 mm 0 mps 772 mmHg 72%

    Pasado mañana, 23 Febrero, Domingo

    Tiempo Temperatura Precipitaciones Viento Presión Humedad
    00:00 +12°C° 0 mm 0 mps 772 mmHg 72%
    01:00 +11°C° 0 mm 0 mps 772 mmHg 71%
    02:00 +11°C° 0 mm 0 mps 772 mmHg 70%
    03:00 +11°C° 0 mm 0 mps 772 mmHg 69%
    04:00 +12°C° 0 mm 1 mps 772 mmHg 67%
    05:00 +12°C° 0 mm 1 mps 771 mmHg 65%
    06:00 +11°C° 0 mm 1 mps 771 mmHg 63%
    07:00 +13°C° 0 mm 1 mps 772 mmHg 55%
    08:00 +15°C° 0 mm 1 mps 772 mmHg 47%
    09:00 +18°C° 0 mm 1 mps 772 mmHg 39%
    10:00 +19°C° 0 mm 1 mps 772 mmHg 37%
    11:00 +19°C° 0 mm 2 mps 772 mmHg 36%
    12:00 +20°C° 0 mm 2 mps 772 mmHg 35%
    13:00 +21°C° 0 mm 2 mps 771 mmHg 36%
    14:00 +21°C° 0 mm 3 mps 770 mmHg 38%
    15:00 +21°C° 0 mm 3 mps 769 mmHg 39%
    16:00 +19°C° 0 mm 2 mps 769 mmHg 47%
    17:00 +17°C° 0 mm 2 mps 769 mmHg 55%
    18:00 +15°C° 0 mm 2 mps 769 mmHg 63%
    19:00 +15°C° 0 mm 2 mps 770 mmHg 64%
    20:00 +15°C° 0 mm 2 mps 770 mmHg 65%
    21:00 +14°C° 0 mm 2 mps 770 mmHg 66%
    22:00 +14°C° 0 mm 2 mps 770 mmHg 65%
    23:00 +14°C° 0 mm 1 mps 770 mmHg 64%

    24 Febrero, Lunes

    Tiempo Temperatura Precipitaciones Viento Presión Humedad
    00:00 +14°C° 0 mm 1 mps 770 mmHg 64%
    01:00 +14°C° 0 mm 1 mps 769 mmHg 63%
    02:00 +14°C° 0 mm 1 mps 769 mmHg 62%
    03:00 +13°C° 0 mm 1 mps 769 mmHg 61%
    04:00 +13°C° 0 mm 1 mps 768 mmHg 60%
    05:00 +12°C° 0 mm 0 mps 768 mmHg 59%
    06:00 +12°C° 0 mm 0 mps 768 mmHg 59%
    07:00 +14°C° 0 mm 0 mps 768 mmHg 54%
    08:00 +15°C° 0 mm 0 mps 768 mmHg 49%
    09:00 +17°C° 0 mm 0 mps 768 mmHg 44%
    10:00 +20°C° 0 mm 1 mps 767 mmHg 41%
    11:00 +20°C° 0 mm 2 mps 767 mmHg 38%
    12:00 +21°C° 0 mm 2 mps 766 mmHg 36%
    13:00 +22°C° 0 mm 3 mps 766 mmHg 36%
    14:00 +22°C° 0 mm 3 mps 765 mmHg 36%
    15:00 +22°C° 0 mm 3 mps 764 mmHg 37%
    16:00 +20°C° 0 mm 2 mps 764 mmHg 44%
    17:00 +18°C° 0 mm 2 mps 764 mmHg 50%
    18:00 +18°C° 0 mm 1 mps 763 mmHg 57%
    19:00 +16°C° 0 mm 1 mps 764 mmHg 56%
    20:00 +16°C° 0 mm 1 mps 764 mmHg 56%
    21:00 +16°C° 0 mm 1 mps 764 mmHg 55%
    22:00 +16°C° 0 mm 1 mps 764 mmHg 51%
    23:00 +16°C° 0 mm 2 mps 764 mmHg 47%

    25 Febrero, Martes

    Tiempo Temperatura Precipitaciones Viento Presión Humedad
    00:00 +16°C° 0 mm 2 mps 763 mmHg 43%
    01:00 +16°C° 0 mm 2 mps 763 mmHg 43%
    02:00 +15°C° 0 mm 2 mps 763 mmHg 43%
    03:00 +15°C° 0 mm 2 mps 763 mmHg 43%
    04:00 +15°C° 0 mm 2 mps 763 mmHg 43%
    05:00 +14°C° 0 mm 2 mps 763 mmHg 43%
    06:00 +14°C° 0 mm 2 mps 763 mmHg 44%
    07:00 +16°C° 0 mm 2 mps 763 mmHg 41%
    08:00 +17°C° 0 mm 2 mps 763 mmHg 38%
    09:00 +20°C° 0 mm 1 mps 763 mmHg 35%
    10:00 +20°C° 0 mm 2 mps 763 mmHg 31%
    11:00 +23°C° 0 mm 2 mps 763 mmHg 27%
    12:00 +24°C° 0 mm 2 mps 763 mmHg 23%
    13:00 +24°C° 0 mm 2 mps 762 mmHg 23%
    14:00 +24°C° 0 mm 3 mps 762 mmHg 23%
    15:00 +24°C° 0 mm 3 mps 762 mmHg 23%
    16:00 +23°C° 0 mm 2 mps 762 mmHg 27%
    17:00 +20°C° 0 mm 2 mps 762 mmHg 30%
    18:00 +20°C° 0 mm 1 mps 762 mmHg 34%
    19:00 +18°C° 0 mm 2 mps 762 mmHg 37%
    20:00 +17°C° 0 mm 2 mps 763 mmHg 40%
    21:00 +16°C° 0 mm 2 mps 763 mmHg 43%
    22:00 +16°C° 0 mm 3 mps 764 mmHg 45%
    23:00 +14°C° 0 mm 4 mps 764 mmHg 48%

    26 Febrero, Miércoles

    Tiempo Temperatura Precipitaciones Viento Presión Humedad
    00:00 +14°C° 0 mm 4 mps 764 mmHg 50%
    01:00 +13°C° 0 mm 4 mps 764 mmHg 52%
    02:00 +13°C° 0 mm 3 mps 764 mmHg 54%
    03:00 +13°C° 0 mm 3 mps 764 mmHg 56%
    04:00 +14°C° 0 mm 2 mps 764 mmHg 57%
    05:00 +13°C° 0 mm 2 mps 764 mmHg 58%
    06:00 +13°C° 0 mm 2 mps 764 mmHg 59%
    07:00 +14°C° 0 mm 1 mps 764 mmHg 55%
    08:00 +15°C° 0 mm 1 mps 764 mmHg 51%
    09:00 +18°C° 0 mm 1 mps 764 mmHg 47%
    10:00 +19°C° 0 mm 1 mps 764 mmHg 44%
    11:00 +19°C° 0 mm 2 mps 764 mmHg 41%
    12:00 +19°C° 0 mm 3 mps 763 mmHg 38%
    13:00 +20°C° 0 mm 3 mps 763 mmHg 40%
    14:00 +20°C° 0 mm 4 mps 762 mmHg 42%
    15:00 +20°C° 0 mm 4 mps 761 mmHg 44%
    16:00 +18°C° 0 mm 3 mps 761 mmHg 51%
    17:00 +17°C° 0 mm 2 mps 761 mmHg 58%
    18:00 +15°C° 0 mm 1 mps 761 mmHg 65%
    19:00 +15°C° 0 mm 2 mps 762 mmHg 63%
    20:00 +14°C° 0 mm 3 mps 762 mmHg 61%
    21:00 +14°C° 0 mm 4 mps 762 mmHg 59%
    22:00 +13°C° 0 mm 4 mps 763 mmHg 58%
    23:00 +13°C° 0 mm 5 mps 763 mmHg 58%
    Mostrar más